VOZ520 YMML-YSSY

Flight info

Callsign VOZ520
Flight time 1h 6m
Altitude 35000
Route ML H129 DOSEL Y59 RIVET
Aircraft B738/M-SDE2E3FGHIRWXY/LB1

Departure

Time 2026-05-01 08:56
Airport Melbourne Airport (YMML)

Arrival

Time 2026-05-01 10:02
Airport Sydney Kingsford Smith International Airport (YSSY)
Time Latitude Longitude Altitude Speed Heading
2026-05-01 08:08 -37.67050 144.84671 358 ft 0 kts 171°
2026-05-01 08:43 -37.67045 144.84670 359 ft 3 kts 172°
2026-05-01 08:43 -37.67019 144.84669 357 ft 4 kts 193°
2026-05-01 08:43 -37.66999 144.84683 357 ft 4 kts 249°
2026-05-01 08:44 -37.66997 144.84690 357 ft 1 kts 259°
2026-05-01 08:48 -37.67001 144.84661 356 ft 6 kts 260°
2026-05-01 08:49 -37.67008 144.84606 357 ft 6 kts 261°
2026-05-01 08:49 -37.67014 144.84551 359 ft 7 kts 264°
2026-05-01 08:49 -37.67026 144.84468 362 ft 12 kts 245°
2026-05-01 08:49 -37.67053 144.84344 372 ft 18 kts 262°
2026-05-01 08:50 -37.67157 144.84264 370 ft 24 kts 169°
2026-05-01 08:50 -37.67336 144.84299 367 ft 21 kts 174°
2026-05-01 08:50 -37.67491 144.84323 361 ft 17 kts 172°
2026-05-01 08:50 -37.67606 144.84345 356 ft 16 kts 171°
2026-05-01 08:51 -37.67715 144.84367 358 ft 16 kts 171°
2026-05-01 08:51 -37.67814 144.84346 355 ft 11 kts 214°
2026-05-01 08:51 -37.67854 144.84271 353 ft 10 kts 262°
2026-05-01 08:51 -37.67864 144.84182 353 ft 10 kts 260°
2026-05-01 08:52 -37.67871 144.84129 357 ft 0 kts 261°
2026-05-01 08:54 -37.67872 144.84119 358 ft 5 kts 261°
2026-05-01 08:54 -37.67882 144.84035 352 ft 13 kts 261°
2026-05-01 08:54 -37.67861 144.83966 353 ft 8 kts 341°
2026-05-01 08:54 -37.67840 144.83961 355 ft 0 kts 351°
2026-05-01 08:55 -37.67530 144.83905 362 ft 88 kts 352°
2026-05-01 08:55 -37.66669 144.83765 396 ft 159 kts 358°
2026-05-01 08:56 -37.65442 144.83509 888 ft 191 kts 352°
2026-05-01 08:56 -37.64055 144.83235 1496 ft 215 kts 354°
2026-05-01 08:56 -37.62478 144.82935 2019 ft 238 kts 355°
2026-05-01 08:56 -37.60839 144.82613 2928 ft 240 kts 353°
2026-05-01 08:57 -37.59170 144.82458 3591 ft 239 kts 10°
2026-05-01 08:57 -37.57658 144.83148 4013 ft 239 kts 24°
2026-05-01 08:57 -37.56125 144.84074 4453 ft 245 kts 24°
2026-05-01 08:57 -37.54588 144.85017 5224 ft 247 kts 24°
2026-05-01 08:58 -37.53035 144.85969 6150 ft 249 kts 24°
2026-05-01 08:58 -37.51463 144.86930 6980 ft 254 kts 23°
2026-05-01 08:58 -37.49858 144.87909 7798 ft 258 kts 23°
2026-05-01 08:58 -37.48225 144.88900 8640 ft 261 kts 22°
2026-05-01 08:59 -37.46595 144.89889 9393 ft 268 kts 22°
2026-05-01 08:59 -37.44881 144.90926 10210 ft 271 kts 23°
2026-05-01 08:59 -37.43330 144.92279 10911 ft 282 kts 44°
2026-05-01 08:59 -37.42122 144.94254 11674 ft 287 kts 50°
2026-05-01 09:00 -37.40962 144.96320 12408 ft 291 kts 51°
2026-05-01 09:00 -37.39792 144.98426 13150 ft 295 kts 52°
2026-05-01 09:00 -37.38607 145.00556 13907 ft 299 kts 51°
2026-05-01 09:00 -37.37403 145.02710 14574 ft 303 kts 51°
2026-05-01 09:01 -37.36184 145.04882 15258 ft 306 kts 51°
2026-05-01 09:01 -37.34945 145.07083 15942 ft 309 kts 51°
2026-05-01 09:01 -37.33695 145.09299 16603 ft 313 kts 51°
2026-05-01 09:01 -37.32412 145.11565 17003 ft 327 kts 51°
2026-05-01 09:02 -37.31061 145.13944 17151 ft 347 kts 51°
2026-05-01 09:02 -37.29638 145.16451 17569 ft 358 kts 51°
2026-05-01 09:02 -37.28184 145.19015 18190 ft 362 kts 51°
2026-05-01 09:02 -37.26715 145.21605 18834 ft 364 kts 51°
2026-05-01 09:03 -37.25242 145.24202 19442 ft 367 kts 51°
2026-05-01 09:03 -37.23752 145.26823 20019 ft 370 kts 51°
2026-05-01 09:03 -37.22248 145.29466 20576 ft 373 kts 51°
2026-05-01 09:03 -37.20735 145.32122 21151 ft 376 kts 51°
2026-05-01 09:04 -37.19208 145.34802 21717 ft 379 kts 51°
2026-05-01 09:04 -37.17670 145.37496 22263 ft 382 kts 51°
2026-05-01 09:04 -37.16120 145.40209 22797 ft 385 kts 51°
2026-05-01 09:04 -37.14550 145.42949 23312 ft 388 kts 51°
2026-05-01 09:05 -37.12967 145.45708 23792 ft 392 kts 51°
2026-05-01 09:05 -37.11370 145.48489 24212 ft 395 kts 51°
2026-05-01 09:05 -37.09758 145.51294 24620 ft 398 kts 51°
2026-05-01 09:05 -37.08133 145.54122 25042 ft 401 kts 51°
2026-05-01 09:06 -37.06499 145.56965 25445 ft 404 kts 51°
2026-05-01 09:06 -37.04850 145.59830 25833 ft 407 kts 51°
2026-05-01 09:06 -37.03186 145.62720 26206 ft 411 kts 51°
2026-05-01 09:06 -37.01536 145.65583 26681 ft 410 kts 51°
2026-05-01 09:07 -36.99847 145.68512 27225 ft 409 kts 51°
2026-05-01 09:07 -36.98205 145.71358 27744 ft 408 kts 51°
2026-05-01 09:07 -36.96540 145.74239 28238 ft 408 kts 51°
2026-05-01 09:07 -36.94872 145.77124 28703 ft 409 kts 51°
2026-05-01 09:08 -36.93201 145.80012 29093 ft 412 kts 52°
2026-05-01 09:08 -36.91496 145.82955 29131 ft 423 kts 52°
2026-05-01 09:08 -36.87953 145.89055 29303 ft 442 kts 52°
2026-05-01 09:09 -36.86136 145.92181 29564 ft 446 kts 52°
2026-05-01 09:09 -36.84336 145.95279 29933 ft 447 kts 52°
2026-05-01 09:09 -36.82501 145.98433 30271 ft 450 kts 52°
2026-05-01 09:09 -36.80654 146.01604 30537 ft 452 kts 52°
2026-05-01 09:10 -36.78792 146.04799 30782 ft 455 kts 52°
2026-05-01 09:10 -36.76918 146.08011 30940 ft 460 kts 52°
2026-05-01 09:10 -36.75025 146.11250 31138 ft 464 kts 52°
2026-05-01 09:10 -36.73124 146.14500 31415 ft 465 kts 52°
2026-05-01 09:11 -36.71212 146.17769 31696 ft 466 kts 52°
2026-05-01 09:11 -36.69295 146.21040 31952 ft 468 kts 52°
2026-05-01 09:11 -36.67366 146.24328 32177 ft 470 kts 51°
2026-05-01 09:11 -36.65455 146.27584 32395 ft 473 kts 51°
2026-05-01 09:12 -36.63506 146.30901 32624 ft 475 kts 51°
2026-05-01 09:12 -36.61551 146.34225 32807 ft 477 kts 51°
2026-05-01 09:12 -36.59582 146.37569 32980 ft 480 kts 51°
2026-05-01 09:12 -36.57603 146.40927 33181 ft 482 kts 51°
2026-05-01 09:13 -36.55616 146.44295 33410 ft 483 kts 51°
2026-05-01 09:13 -36.53626 146.47668 33629 ft 484 kts 51°
2026-05-01 09:13 -36.51626 146.51050 33817 ft 486 kts 51°
2026-05-01 09:13 -36.49619 146.54443 34006 ft 488 kts 51°
2026-05-01 09:14 -36.47604 146.57845 34134 ft 491 kts 51°
2026-05-01 09:14 -36.45571 146.61273 34267 ft 493 kts 51°
2026-05-01 09:14 -36.43557 146.64667 34440 ft 493 kts 51°
2026-05-01 09:14 -36.41520 146.68098 34613 ft 493 kts 51°
2026-05-01 09:15 -36.39476 146.71539 35142 ft 484 kts 51°
2026-05-01 09:15 -36.37506 146.74852 35275 ft 486 kts 51°
2026-05-01 09:15 -36.33481 146.81602 35290 ft 487 kts 50°
2026-05-01 09:16 -36.29454 146.88344 35303 ft 486 kts 51°
2026-05-01 09:17 -36.23421 146.98423 35307 ft 485 kts 51°
2026-05-01 09:17 -36.17382 147.08482 35305 ft 485 kts 50°
2026-05-01 09:18 -36.11355 147.18480 35314 ft 485 kts 51°
2026-05-01 09:19 -36.05291 147.28516 35308 ft 485 kts 51°
2026-05-01 09:20 -35.99212 147.38550 35326 ft 486 kts 51°
2026-05-01 09:21 -35.91097 147.51900 35324 ft 486 kts 51°
2026-05-01 09:21 -35.85032 147.61847 35332 ft 486 kts 51°
2026-05-01 09:22 -35.76894 147.75136 35325 ft 484 kts 51°
2026-05-01 09:23 -35.70802 147.85053 35341 ft 484 kts 50°
2026-05-01 09:24 -35.64706 147.94951 35343 ft 483 kts 50°
2026-05-01 09:25 -35.56605 148.08063 35353 ft 483 kts 50°
2026-05-01 09:26 -35.50502 148.17908 35345 ft 483 kts 50°
2026-05-01 09:26 -35.44404 148.27721 35364 ft 482 kts 50°
2026-05-01 09:27 -35.40326 148.34262 35153 ft 484 kts 50°
2026-05-01 09:27 -35.38274 148.37545 34650 ft 482 kts 50°
2026-05-01 09:27 -35.36246 148.40791 34157 ft 477 kts 50°
2026-05-01 09:28 -35.34240 148.43999 33627 ft 472 kts 50°
2026-05-01 09:28 -35.32254 148.47173 33103 ft 467 kts 50°
2026-05-01 09:28 -35.30283 148.50319 32612 ft 463 kts 50°
2026-05-01 09:28 -35.28329 148.53436 32108 ft 460 kts 50°
2026-05-01 09:29 -35.24479 148.59567 31144 ft 454 kts 50°
2026-05-01 09:29 -35.22552 148.62632 30665 ft 451 kts 50°
2026-05-01 09:30 -35.18743 148.68681 29584 ft 445 kts 50°
2026-05-01 09:30 -35.16862 148.71666 29059 ft 442 kts 50°
2026-05-01 09:30 -35.13128 148.77584 28000 ft 436 kts 50°
2026-05-01 09:31 -35.11284 148.80502 27491 ft 432 kts 50°
2026-05-01 09:31 -35.09453 148.83397 26986 ft 429 kts 50°
2026-05-01 09:31 -35.05853 148.89082 26007 ft 422 kts 50°
2026-05-01 09:32 -35.04057 148.91915 25553 ft 419 kts 50°
2026-05-01 09:32 -35.00587 148.97387 25359 ft 394 kts 50°
2026-05-01 09:32 -34.98931 148.99994 25354 ft 388 kts 50°
2026-05-01 09:33 -34.97258 149.02623 25374 ft 396 kts 50°
2026-05-01 09:33 -34.95553 149.05296 25376 ft 401 kts 50°
2026-05-01 09:33 -34.92158 149.10625 25355 ft 394 kts 50°
2026-05-01 09:34 -34.90505 149.13219 25349 ft 391 kts 50°
2026-05-01 09:34 -34.88827 149.15848 25362 ft 394 kts 50°
2026-05-01 09:34 -34.85427 149.21166 25369 ft 399 kts 50°
2026-05-01 09:35 -34.83722 149.23833 25358 ft 398 kts 50°
2026-05-01 09:35 -34.80331 149.29130 25368 ft 396 kts 50°
2026-05-01 09:35 -34.78627 149.31788 25380 ft 402 kts 50°
2026-05-01 09:36 -34.76884 149.34504 25377 ft 412 kts 50°
2026-05-01 09:36 -34.75104 149.37275 25373 ft 416 kts 50°
2026-05-01 09:36 -34.73421 149.40123 25368 ft 415 kts 57°
2026-05-01 09:36 -34.72047 149.43158 25380 ft 414 kts 60°
2026-05-01 09:37 -34.70717 149.46274 25368 ft 414 kts 61°
2026-05-01 09:37 -34.68084 149.52486 25375 ft 413 kts 60°
2026-05-01 09:37 -34.66749 149.55592 25378 ft 414 kts 60°
2026-05-01 09:38 -34.64070 149.61753 25389 ft 414 kts 60°
2026-05-01 09:38 -34.62719 149.64839 25395 ft 414 kts 60°
2026-05-01 09:38 -34.61824 149.66882 25384 ft 413 kts 60°
2026-05-01 09:39 -34.59120 149.73046 25296 ft 414 kts 60°
2026-05-01 09:39 -34.57759 149.76142 25041 ft 413 kts 60°
2026-05-01 09:39 -34.56414 149.79204 24710 ft 411 kts 60°
2026-05-01 09:40 -34.55069 149.82260 24250 ft 410 kts 60°
2026-05-01 09:40 -34.52400 149.88322 23248 ft 405 kts 60°
2026-05-01 09:40 -34.51072 149.91331 22717 ft 403 kts 60°
2026-05-01 09:41 -34.49752 149.94321 22203 ft 401 kts 60°
2026-05-01 09:41 -34.47149 150.00201 21206 ft 395 kts 60°
2026-05-01 09:41 -34.45837 150.03162 20709 ft 392 kts 60°
2026-05-01 09:42 -34.44564 150.06033 20242 ft 390 kts 60°
2026-05-01 09:42 -34.43284 150.08916 19770 ft 387 kts 60°
2026-05-01 09:42 -34.40745 150.14633 18838 ft 383 kts 60°
2026-05-01 09:43 -34.38238 150.20269 17824 ft 378 kts 60°
2026-05-01 09:43 -34.36996 150.23058 17313 ft 375 kts 60°
2026-05-01 09:43 -34.35759 150.25835 16801 ft 373 kts 60°
2026-05-01 09:44 -34.33321 150.31299 15831 ft 368 kts 60°
2026-05-01 09:44 -34.32107 150.34015 15350 ft 366 kts 60°
2026-05-01 09:44 -34.30900 150.36717 14878 ft 364 kts 60°
2026-05-01 09:45 -34.29700 150.39399 14416 ft 361 kts 60°
2026-05-01 09:45 -34.27320 150.44713 13404 ft 357 kts 60°
2026-05-01 09:45 -34.26141 150.47350 12891 ft 354 kts 60°
2026-05-01 09:46 -34.24983 150.49942 12387 ft 346 kts 60°
2026-05-01 09:46 -34.23850 150.52475 11888 ft 339 kts 60°
2026-05-01 09:46 -34.22740 150.54956 11392 ft 331 kts 60°
2026-05-01 09:46 -34.21669 150.57346 10916 ft 323 kts 60°
2026-05-01 09:47 -34.20611 150.59708 10444 ft 316 kts 60°
2026-05-01 09:47 -34.19580 150.62006 10096 ft 305 kts 60°
2026-05-01 09:47 -34.18594 150.64203 10030 ft 291 kts 60°
2026-05-01 09:47 -34.17643 150.66319 10012 ft 283 kts 60°
2026-05-01 09:48 -34.16706 150.68401 10014 ft 283 kts 60°
2026-05-01 09:48 -34.15762 150.70498 10023 ft 285 kts 60°
2026-05-01 09:48 -34.14814 150.72601 9992 ft 285 kts 60°
2026-05-01 09:48 -34.13865 150.74707 9547 ft 294 kts 60°
2026-05-01 09:49 -34.12888 150.76876 9194 ft 292 kts 60°
2026-05-01 09:49 -34.11933 150.78996 8970 ft 282 kts 60°
2026-05-01 09:49 -34.11015 150.81032 8747 ft 272 kts 60°
2026-05-01 09:49 -34.10113 150.83028 8524 ft 270 kts 60°
2026-05-01 09:50 -34.09216 150.85019 8305 ft 269 kts 60°
2026-05-01 09:50 -34.08336 150.86976 8062 ft 262 kts 60°
2026-05-01 09:50 -34.07476 150.88887 7839 ft 257 kts 60°
2026-05-01 09:50 -34.06623 150.90782 7627 ft 257 kts 60°
2026-05-01 09:51 -34.05771 150.92672 7398 ft 256 kts 60°
2026-05-01 09:51 -34.04920 150.94559 7174 ft 256 kts 60°
2026-05-01 09:51 -34.04068 150.96446 6950 ft 256 kts 60°
2026-05-01 09:51 -34.03271 150.98365 6707 ft 257 kts 71°
2026-05-01 09:52 -34.03170 151.00508 6449 ft 260 kts 101°
2026-05-01 09:52 -34.03887 151.02502 6232 ft 263 kts 123°
2026-05-01 09:52 -34.05071 151.04159 6006 ft 263 kts 131°
2026-05-01 09:52 -34.06348 151.05742 5749 ft 264 kts 132°
2026-05-01 09:53 -34.07666 151.07282 5502 ft 265 kts 141°
2026-05-01 09:53 -34.09371 151.08150 5205 ft 268 kts 166°
2026-05-01 09:53 -34.11199 151.08599 4913 ft 265 kts 167°
2026-05-01 09:53 -34.12996 151.09041 4590 ft 260 kts 166°
2026-05-01 09:54 -34.14749 151.09483 4280 ft 255 kts 166°
2026-05-01 09:54 -34.16465 151.09923 3967 ft 249 kts 166°
2026-05-01 09:54 -34.18125 151.10351 3677 ft 245 kts 165°
2026-05-01 09:54 -34.19781 151.10784 3365 ft 240 kts 163°
2026-05-01 09:55 -34.21260 151.11589 3059 ft 229 kts 134°
2026-05-01 09:55 -34.22069 151.13134 3016 ft 214 kts 100°
2026-05-01 09:55 -34.22136 151.14887 3012 ft 207 kts 84°
2026-05-01 09:55 -34.22043 151.16622 3025 ft 205 kts 83°
2026-05-01 09:56 -34.21940 151.18345 3010 ft 207 kts 83°
2026-05-01 09:56 -34.21536 151.19987 2987 ft 207 kts 50°
2026-05-01 09:56 -34.20394 151.21016 3011 ft 207 kts 32°
2026-05-01 09:56 -34.19185 151.21967 3003 ft 207 kts 35°
2026-05-01 09:57 -34.17983 151.22898 2987 ft 202 kts 24°
2026-05-01 09:57 -34.16678 151.23199 2999 ft 187 kts
2026-05-01 09:57 -34.15386 151.23090 3012 ft 181 kts 353°
2026-05-01 09:57 -34.14181 151.22792 2993 ft 174 kts 351°
2026-05-01 09:58 -34.13053 151.22491 2979 ft 158 kts 351°
2026-05-01 09:58 -34.11998 151.22209 2998 ft 154 kts 352°
2026-05-01 09:58 -34.10953 151.21933 2888 ft 155 kts 352°
2026-05-01 09:58 -34.09900 151.21655 2694 ft 154 kts 351°
2026-05-01 09:59 -34.08859 151.21378 2489 ft 152 kts 352°
2026-05-01 09:59 -34.07826 151.21105 2294 ft 151 kts 352°
2026-05-01 09:59 -34.06807 151.20835 2092 ft 153 kts 352°
2026-05-01 09:59 -34.05776 151.20562 1877 ft 151 kts 352°
2026-05-01 10:00 -34.04745 151.20289 1691 ft 152 kts 352°
2026-05-01 10:00 -34.03709 151.20015 1466 ft 152 kts 351°
2026-05-01 10:00 -34.02681 151.19742 1275 ft 151 kts 351°
2026-05-01 10:00 -34.01657 151.19471 1079 ft 150 kts 352°
2026-05-01 10:01 -34.00632 151.19199 900 ft 150 kts 352°
2026-05-01 10:01 -33.99602 151.18927 677 ft 150 kts 351°
2026-05-01 10:01 -33.98572 151.18653 475 ft 154 kts 352°
2026-05-01 10:01 -33.97532 151.18379 263 ft 152 kts 350°
2026-05-01 10:02 -33.96505 151.18094 101 ft 151 kts 349°
2026-05-01 10:02 -33.95510 151.17831 22 ft 141 kts 351°
2026-05-01 10:02 -33.94882 151.17666 22 ft 38 kts 348°
2026-05-01 10:02 -33.94675 151.17646 22 ft 21 kts
2026-05-01 10:03 -33.94541 151.17676 25 ft 13 kts 16°
2026-05-01 10:03 -33.94455 151.17709 26 ft 12 kts 18°
2026-05-01 10:03 -33.94436 151.17716 26 ft 0 kts 18°
2026-05-01 10:04 -33.94430 151.17718 25 ft 2 kts 18°
2026-05-01 10:04 -33.94401 151.17730 23 ft 7 kts 18°
2026-05-01 10:04 -33.94339 151.17737 21 ft 11 kts 348°
2026-05-01 10:05 -33.94248 151.17710 20 ft 15 kts 346°
2026-05-01 10:05 -33.94141 151.17677 21 ft 17 kts 346°
2026-05-01 10:05 -33.94018 151.17641 20 ft 20 kts 347°
2026-05-01 10:05 -33.93892 151.17607 18 ft 19 kts 348°
2026-05-01 10:06 -33.93760 151.17574 17 ft 18 kts 347°
2026-05-01 10:06 -33.93660 151.17600 22 ft 16 kts 56°
2026-05-01 10:06 -33.93658 151.17691 29 ft 11 kts 99°
2026-05-01 10:06 -33.93665 151.17786 29 ft 11 kts 69°
2026-05-01 10:07 -33.93598 151.17822 30 ft 9 kts 10°
2026-05-01 10:07 -33.93569 151.17851 30 ft 5 kts 94°
2026-05-01 10:07 -33.93576 151.17896 30 ft 0 kts 100°